Weather History for Bentonville, AR

Change the Weather History Date:

Friday, January 27, 2012

  Actual Average Record
Temperature  
Mean Temperature 40 °F -  
Max Temperature 53 °F 45 °F 66 °F (1970)
Min Temperature 26 °F 22 °F -2 °F (1963)
Degree Days  
Heating Degree Days 26    
Moisture  
Dew Point 26 °F    
Average Humidity 60    
Maximum Humidity 93    
Minimum Humidity 33    
Precipitation  
Precipitation 0.00 in - - ()
Sea Level Pressure  
Sea Level Pressure 29.92 in    
Wind  
Wind Speed 4 mph (SSE)    
Max Wind Speed 14 mph    
Max Gust Speed 22 mph    
Visibility 10 miles    
Events      
Averages and records for this station are not official NWS values.
T = Trace of Precipitation, MM = Missing Value Source: NWS Daily Summary

Daily Weather History Graph

Daily Weather History Graph

Search for Another Location

Airport:

Trip Planner

Search our weather history database for the weather conditions in past years. The results will help you decide how hot, cold, wet, or windy it might be!

Date:

Astronomy

Jan. 27, 2012 Rise Set
Actual Time 7:22 AM CST 5:37 PM CST
Civil Twilight 6:54 AM CST 6:04 PM CST
Nautical Twilight 6:23 AM CST 6:35 PM CST
Astronomical Twilight 5:53 AM CST 7:06 PM CST
Moon 9:26 AM CST (1/27) 10:18 PM CST (1/27)
Length of Visible Light 11h 10m
Length of Day
10h 15m
Waxing Crescent, 20% of the Moon is Illuminated
Jan 27
Waxing Crescent
Jan 30
First Quarter
Feb 7
Full
Feb 14
Last Quarter
Feb 21
New

Hourly Weather History & Observations

Time (CST) Temp. Windchill Dew Point Humidity Pressure Visibility Wind Dir Wind Speed Gust Speed Precip Events Conditions
12:15 AM 35.6 °F 32.8 °F 24.8 °F 65% 29.94 in 10.0 mi West 3.5 mph - N/A   Clear
12:35 AM 35.6 °F - 23.0 °F 60% 29.92 in 10.0 mi Calm Calm - N/A   Clear
12:55 AM 35.6 °F - 21.2 °F 56% 29.92 in 10.0 mi Calm Calm - N/A   Clear
1:15 AM 33.8 °F - 21.2 °F 60% 29.92 in 10.0 mi Calm Calm - N/A   Clear
1:35 AM 30.2 °F - 24.8 °F 80% 29.93 in 10.0 mi Calm Calm - N/A   Clear
1:55 AM 32.0 °F - 24.8 °F 75% 29.94 in 10.0 mi Calm Calm - N/A   Clear
2:15 AM 30.2 °F - 24.8 °F 80% 29.94 in 10.0 mi Calm Calm - N/A   Clear
2:35 AM 30.2 °F - 23.0 °F 75% 29.95 in 10.0 mi Calm Calm - N/A   Clear
2:55 AM 28.4 °F 24.6 °F 21.2 °F 74% 29.94 in 10.0 mi South 3.5 mph - N/A   Clear
3:15 AM 28.4 °F - 21.2 °F 74% 29.94 in 10.0 mi Calm Calm - N/A   Clear
3:35 AM 28.4 °F 24.6 °F 23.0 °F 80% 29.94 in 10.0 mi SSE 3.5 mph - N/A   Clear
3:55 AM 28.4 °F - 23.0 °F 80% 29.96 in 10.0 mi Calm Calm - N/A   Clear
4:15 AM 28.4 °F - 23.0 °F 80% 29.96 in 10.0 mi Calm Calm - N/A   Clear
4:35 AM 28.4 °F 24.6 °F 24.8 °F 86% 29.96 in 10.0 mi SE 3.5 mph - N/A   Clear
4:55 AM 28.4 °F 23.3 °F 23.0 °F 80% 29.95 in 10.0 mi ESE 4.6 mph - N/A   Clear
5:15 AM 28.4 °F 24.6 °F 23.0 °F 80% 29.94 in 10.0 mi ESE 3.5 mph - N/A   Clear
5:35 AM 26.6 °F 21.2 °F 24.8 °F 93% 29.95 in 10.0 mi SE 4.6 mph - N/A   Clear
5:55 AM 28.4 °F 24.6 °F 23.0 °F 80% 29.96 in 10.0 mi SSE 3.5 mph - N/A   Clear
6:15 AM 30.2 °F 24.3 °F 24.8 °F 80% 29.95 in 10.0 mi ESE 5.8 mph - N/A   Clear
6:35 AM 30.2 °F 25.4 °F 24.8 °F 80% 29.94 in 10.0 mi ESE 4.6 mph - N/A   Clear
6:55 AM 30.2 °F 26.7 °F 24.8 °F 80% 29.96 in 10.0 mi SSW 3.5 mph - N/A   Clear
7:15 AM 30.2 °F 25.4 °F 24.8 °F 80% 29.97 in 10.0 mi South 4.6 mph - N/A   Clear
7:35 AM 30.2 °F 25.4 °F 24.8 °F 80% 29.98 in 10.0 mi SSE 4.6 mph - N/A   Clear
7:55 AM 30.2 °F 25.4 °F 24.8 °F 80% 29.98 in 10.0 mi SSE 4.6 mph - N/A   Clear
8:15 AM 30.2 °F 25.4 °F 26.6 °F 86% 29.97 in 10.0 mi SE 4.6 mph - N/A   Clear
8:35 AM 35.6 °F 32.8 °F 28.4 °F 75% 29.97 in 10.0 mi SE 3.5 mph - N/A   Clear
8:55 AM 37.4 °F 33.8 °F 28.4 °F 70% 29.97 in 10.0 mi SSE 4.6 mph - N/A   Clear
9:15 AM 39.2 °F 35.0 °F 28.4 °F 65% 29.96 in 10.0 mi SE 5.8 mph - N/A   Clear
9:35 AM 39.2 °F 35.9 °F 28.4 °F 65% 29.96 in 10.0 mi SSE 4.6 mph - N/A   Clear
9:55 AM 42.8 °F 38.6 °F 30.2 °F 61% 29.96 in 10.0 mi SSE 6.9 mph - N/A   Clear
10:15 AM 44.6 °F 42.2 °F 30.2 °F 57% 29.96 in 10.0 mi SE 4.6 mph - N/A   Clear
10:55 AM 46.4 °F 42.9 °F 30.2 °F 53% 29.96 in 10.0 mi SSE 6.9 mph - N/A   Clear
11:15 AM 46.4 °F 44.3 °F 30.2 °F 53% 29.95 in 10.0 mi SSE 4.6 mph - N/A   Clear
11:35 AM 50.0 °F - 30.2 °F 47% 29.94 in 10.0 mi South 8.1 mph - N/A   Clear
11:55 AM 51.8 °F - 30.2 °F 44% 29.93 in 10.0 mi South 9.2 mph - N/A   Clear
12:15 PM 51.8 °F - 30.2 °F 44% 29.91 in 10.0 mi South 8.1 mph - N/A   Clear
12:35 PM 53.6 °F - 26.6 °F 35% 29.91 in 10.0 mi South 11.5 mph 16.1 mph N/A   Clear
12:55 PM 51.8 °F - 26.6 °F 38% 29.89 in 10.0 mi South 10.4 mph - N/A   Clear
1:15 PM 53.6 °F - 26.6 °F 35% 29.89 in 10.0 mi South 13.8 mph 19.6 mph N/A   Scattered Clouds
1:35 PM 53.6 °F - 24.8 °F 33% 29.87 in 10.0 mi South 12.7 mph 21.9 mph N/A   Mostly Cloudy
1:55 PM 51.8 °F - 24.8 °F 35% 29.87 in 10.0 mi South 6.9 mph - N/A   Mostly Cloudy
2:15 PM 53.6 °F - 24.8 °F 33% 29.85 in 10.0 mi South 9.2 mph - N/A   Mostly Cloudy
2:35 PM 53.6 °F - 26.6 °F 35% 29.85 in 10.0 mi SSE 8.1 mph - N/A   Overcast
2:55 PM 53.6 °F - 26.6 °F 35% 29.84 in 10.0 mi SSE 11.5 mph - N/A   Scattered Clouds
3:15 PM 53.6 °F - 26.6 °F 35% 29.84 in 10.0 mi South 6.9 mph - N/A   Clear
3:35 PM 53.6 °F - 26.6 °F 35% 29.84 in 10.0 mi South 10.4 mph - N/A   Clear
3:55 PM 53.6 °F - 26.6 °F 35% 29.84 in 10.0 mi South 11.5 mph 17.3 mph N/A   Clear
4:15 PM 53.6 °F - 28.4 °F 38% 29.84 in 10.0 mi SSE 8.1 mph - N/A   Clear
4:35 PM 53.6 °F - 26.6 °F 35% 29.86 in 10.0 mi South 8.1 mph - N/A   Scattered Clouds
4:55 PM 51.8 °F - 28.4 °F 41% 29.88 in 10.0 mi SW 5.8 mph - N/A   Overcast
5:15 PM 50.0 °F - 30.2 °F 47% 29.90 in 10.0 mi West 3.5 mph - N/A   Overcast
5:35 PM 50.0 °F - 30.2 °F 47% 29.91 in 10.0 mi SW 3.5 mph - N/A   Overcast
5:55 PM 48.2 °F - 30.2 °F 50% 29.92 in 10.0 mi Calm Calm - N/A   Overcast
6:15 PM 48.2 °F - 30.2 °F 50% 29.92 in 10.0 mi SE 4.6 mph - N/A   Overcast
6:35 PM 46.4 °F 42.9 °F 32.0 °F 57% 29.92 in 10.0 mi SE 6.9 mph - N/A   Overcast
6:55 PM 48.2 °F - 32.0 °F 54% 29.92 in 10.0 mi SE 5.8 mph - N/A   Overcast
7:15 PM 48.2 °F - 30.2 °F 50% 29.93 in 10.0 mi SSE 3.5 mph - N/A   Overcast
7:35 PM 48.2 °F - 30.2 °F 50% 29.93 in 10.0 mi SSE 4.6 mph - N/A   Overcast
7:55 PM 48.2 °F - 30.2 °F 50% 29.94 in 10.0 mi South 4.6 mph - N/A   Overcast
8:15 PM 48.2 °F - 33.8 °F 58% 29.95 in 10.0 mi WSW 11.5 mph - N/A   Overcast
8:35 PM 48.2 °F - 35.6 °F 62% 29.96 in 10.0 mi WSW 5.8 mph - N/A   Overcast
8:55 PM 48.2 °F - 33.8 °F 58% 29.95 in 10.0 mi South 4.6 mph - N/A   Mostly Cloudy
9:15 PM 48.2 °F - 35.6 °F 62% 29.98 in 10.0 mi NNW 4.6 mph - N/A   Mostly Cloudy
9:35 PM 48.2 °F - 33.8 °F 58% 30.00 in 10.0 mi NW 13.8 mph 20.7 mph N/A   Overcast
9:55 PM 48.2 °F - 32.0 °F 54% 30.03 in 10.0 mi North 19.6 mph 28.8 mph N/A   Overcast
10:15 PM 46.4 °F 39.5 °F 30.2 °F 53% 30.05 in 10.0 mi NNW 17.3 mph 28.8 mph N/A   Overcast
10:35 PM 44.6 °F 36.6 °F 30.2 °F 57% 30.08 in 10.0 mi North 19.6 mph 27.6 mph N/A   Overcast
10:55 PM 44.6 °F 37.2 °F 30.2 °F 57% 30.10 in 10.0 mi North 17.3 mph 24.2 mph N/A   Overcast
11:15 PM 42.8 °F 34.5 °F 28.4 °F 57% 30.12 in 10.0 mi North 18.4 mph 25.3 mph N/A   Scattered Clouds
11:35 PM 41.0 °F 31.9 °F 26.6 °F 57% 30.14 in 10.0 mi North 19.6 mph 26.5 mph N/A   Clear
11:55 PM 39.2 °F 30.2 °F 26.6 °F 61% 30.15 in 10.0 mi North 17.3 mph - N/A   Clear